DW8356 Weather Reports


time (UTC)temp
C
wind
direction
speed
KPH
gust
KPH
rain 1hr
cm
rain 24hr
cm
rain mn
cm
humidity
%
barometer
mb
20260506081538 14 328 6.4 12.9 0.00 0.00 0.00 72 1010.3
20260506081028 14 352 4.8 8.0 0.00 0.00 0.00 72 1009.9
20260506080520 14 61 3.2 11.3 0.00 0.00 0.00 73 1009.8
20260506073519 14 17 3.2 14.5 0.00 0.00 0.00 74 1009.9
20260506073039 14 30 4.8 19.3 0.00 0.00 0.00 74 1009.8
20260506072519 14 32 6.4 19.3 0.00 0.00 0.00 74 1010.0
20260506072021 14 53 9.7 19.3 0.00 0.00 0.00 73 1010.1
20260506071537 14 37 6.4 16.1 0.00 0.00 0.00 74 1010.1
20260506071023 14 360 6.4 17.7 0.00 0.00 0.00 74 1010.1
20260506070522 14 19 6.4 17.7 0.00 0.00 0.00 74 1010.0
20260506062021 15 17 6.4 17.7 0.00 0.00 0.00 74 1009.9
20260506061538 15 323 6.4 17.7 0.00 0.00 0.00 74 1010.0
20260506061020 15 38 8.0 17.7 0.00 0.00 0.00 74 1009.9
20260506060522 15 352 6.4 17.7 0.00 0.00 0.00 74 1010.0
20260506051021 16 10 8.0 24.1 0.00 0.00 0.00 75 1010.1
20260506050523 16 311 8.0 19.3 0.00 0.00 0.00 75 1010.0
20260506045025 16 338 8.0 19.3 0.00 0.00 0.00 75 1010.0
20260506044539 16 345 4.8 16.1 0.00 0.00 0.00 75 1009.8
20260506044021 16 325 6.4 20.9 0.00 0.00 0.00 75 1009.8
20260506043523 16 281 11.3 22.5 0.00 0.00 0.00 75 1009.7
20260506043038 16 32 9.7 22.5 0.00 0.00 0.00 75 1009.7
20260506042524 17 37 11.3 22.5 0.00 0.00 0.00 74 1009.7
20260506042021 17 352 9.7 19.3 0.00 0.00 0.00 75 1009.7
20260506041536 17 348 6.4 19.3 0.00 0.00 0.00 74 1009.6
20260506041022 17 336 9.7 17.7 0.00 0.00 0.00 75 1009.4
20260506040522 17 15 8.0 17.7 0.00 0.00 0.00 75 1009.3
20260506040039 17 5 8.0 20.9 0.00 0.00 0.00 75 1009.2
20260506035522 17 122 6.4 22.5 0.00 0.00 0.00 75 1009.3
20260506035023 17 346 11.3 22.5 0.00 0.00 0.00 74 1009.2
20260506034538 17 352 9.7 22.5 0.00 0.00 0.00 74 1009.2
20260506034021 18 322 6.4 19.3 0.00 0.00 0.00 74 1009.0
20260506033521 18 308 8.0 22.5 0.00 0.00 0.00 74 1009.0
20260506033041 18 329 8.0 22.5 0.00 0.00 0.00 74 1009.0
20260506032520 18 352 9.7 22.5 0.00 0.00 0.00 73 1009.1
20260506032021 18 306 9.7 20.9 0.00 0.00 0.00 73 1008.9
20260506031538 19 15 8.0 20.9 0.00 0.00 0.00 73 1008.9
20260506031019 19 298 6.4 16.1 0.00 0.00 0.00 73 1008.6
20260506030525 20 350 8.0 20.9 0.00 0.00 0.00 72 1008.5
20260506030037 20 325 8.0 20.9 0.00 0.00 0.00 72 1008.4
20260506025519 20 352 6.4 17.7 0.00 0.00 0.00 72 1008.4
20260506025021 20 55 6.4 17.7 0.00 0.00 0.00 72 1008.2
20260506024536 20 344 8.0 17.7 0.00 0.00 0.00 72 1008.2
20260506024023 20 336 4.8 17.7 0.00 0.00 0.00 72 1007.8
20260506023519 20 323 6.4 17.7 0.00 0.00 0.00 72 1007.7
20260506023051 20 63 8.0 19.3 0.00 0.00 0.00 72 1007.5
20260506022521 21 10 9.7 19.3 0.00 0.00 0.00 71 1007.4
20260506022021 21 305 8.0 19.3 0.00 0.00 0.00 71 1007.3
20260506021540 21 328 9.7 19.3 0.00 0.00 0.00 71 1007.3
20260506021023 21 360 6.4 17.7 0.00 0.00 0.00 71 1007.2
20260506020521 21 339 8.0 19.3 0.00 0.00 0.00 70 1006.9
20260506020039 22 40 9.7 19.3 0.00 0.00 0.00 70 1006.7
20260506015521 22 351 6.4 16.1 0.00 0.00 0.00 70 1006.8
20260506015026 22 13 6.4 16.1 0.00 0.00 0.00 69 1006.8
20260506014540 22 352 4.8 12.9 0.00 0.00 0.00 68 1006.8
20260506014019 22 38 4.8 12.9 0.00 0.00 0.00 68 1006.3
20260506013521 22 5 3.2 14.5 0.00 0.00 0.00 68 1006.6
20260506013037 22 10 6.4 14.5 0.00 0.00 0.00 67 1006.5
20260506012521 22 43 3.2 16.1 0.00 0.00 0.00 67 1006.5
20260506012024 22 344 4.8 16.1 0.00 0.00 0.00 67 1006.6
20260506011535 22 51 4.8 22.5 0.00 0.00 0.00 66 1006.4
20260506011021 22 29 8.0 22.5 0.00 0.00 0.00 66 1006.1
20260506010521 23 352 8.0 19.3 0.00 0.00 0.00 65 1006.2
20260506010049 23 15 6.4 19.3 0.00 0.00 0.00 65 1006.1
20260506005520 23 352 9.7 19.3 0.00 0.00 0.00 64 1005.5
20260506005021 23 317 8.0 17.7 0.00 0.00 0.00 64 1005.5
20260506004543 23 48 3.2 20.9 0.00 0.00 0.00 65 1006.0
20260506004021 23 32 4.8 20.9 0.00 0.00 0.00 64 1005.7
20260506003521 23 329 9.7 17.7 0.00 0.00 0.00 64 1005.8
20260506003038 24 327 6.4 17.7 0.00 0.00 0.00 64 1005.8
20260506002519 24 307 6.4 17.7 0.00 0.00 0.00 64 1005.7
20260506002021 25 321 6.4 17.7 0.00 0.00 0.00 63 1005.7
20260506001544 25 334 6.4 20.9 0.00 0.00 0.00 63 1005.7
20260506001021 25 287 8.0 20.9 0.00 0.00 0.00 62 1005.6
20260506000521 26 32 4.8 19.3 0.00 0.00 0.00 61 1005.3
20260506000037 26 326 6.4 19.3 0.00 0.00 0.00 60 1005.1
20260505235523 26 352 4.8 14.5 0.00 0.00 0.00 59 1005.1
20260505235025 26 12 4.8 20.9 0.00 0.00 0.00 60 1005.1
20260505234556 26 336 6.4 20.9 0.00 0.00 0.00 60 1005.1
20260505234021 27 324 6.4 24.1 0.00 0.00 0.00 58 1004.9
20260505233522 27 352 8.0 24.1 0.00 0.00 0.00 57 1005.0
20260505233039 27 5 9.7 27.4 0.00 0.00 0.00 56 1005.0
20260505232522 28 5 11.3 27.4 0.00 0.00 0.00 55 1004.7
20260505232022 28 299 8.0 16.1 0.00 0.00 0.00 52 1004.6
20260505231539 29 336 3.2 16.1 0.00 0.00 0.00 50 1004.7
20260505231021 29 331 8.0 17.7 0.00 0.00 0.00 49 1004.5
20260505230519 29 276 8.0 20.9 0.00 0.00 0.00 48 1004.4
20260505230038 30 325 6.4 20.9 0.00 0.00 0.00 47 1004.2
20260505225521 30 348 6.4 16.1 0.00 0.00 0.00 46 1004.1
20260505225022 30 66 8.0 20.9 0.00 0.00 0.00 46 1004.2
20260505224539 31 331 9.7 20.9 0.00 0.00 0.00 45 1004.1
20260505224021 31 43 1.6 6.4 0.00 0.00 0.00 50 1004.1
20260505223528 32 0 0.0 4.8 0.00 0.00 0.00 51 1003.9
20260505223040 31 0 1.6 4.8 0.00 0.00 0.00 50 1003.6
20260505222522 32 0 1.6 3.2 0.00 0.00 0.00 51 1003.5
20260505222022 32 161 0.0 6.4 0.00 0.00 0.00 52 1003.6
20260505221532 32 163 0.0 6.4 0.00 0.00 0.00 51 1003.4
20260505221027 32 207 1.6 6.4 0.00 0.00 0.00 51 1003.4
20260505220519 32 325 1.6 6.4 0.00 0.00 0.00 51 1003.6
20260505220036 32 302 0.0 4.8 0.00 0.00 0.00 51 1003.7
20260505215522 32 293 0.0 3.2 0.00 0.00 0.00 50 1003.8
20260505215021 32 0 0.0 3.2 0.00 0.00 0.00 51 1003.8
20260505214559 32 227 1.6 4.8 0.00 0.00 0.00 51 1003.9
20260505214022 32 244 1.6 6.4 0.00 0.00 0.00 50 1003.8
20260505213521 32 247 1.6 16.1 0.00 0.00 0.00 50 1003.8
20260505213042 32 135 4.8 16.1 0.00 0.00 0.00 50 1004.0
20260505212524 32 163 0.0 9.7 0.00 0.00 0.00 49 1004.0
20260505212021 32 214 1.6 9.7 0.00 0.00 0.00 52 1004.1
20260505211535 32 88 1.6 8.0 0.00 0.00 0.00 50 1004.0
20260505211024 32 165 1.6 8.0 0.00 0.00 0.00 51 1004.2
20260505210520 32 0 0.0 8.0 0.00 0.00 0.00 52 1004.2
20260505210040 32 211 1.6 8.0 0.00 0.00 0.00 53 1004.2
20260505205522 32 225 1.6 6.4 0.00 0.00 0.00 53 1004.2
20260505205022 32 202 1.6 6.4 0.00 0.00 0.00 54 1004.3
20260505204548 31 138 1.6 6.4 0.00 0.00 0.00 56 1004.3
20260505204022 32 210 1.6 8.0 0.00 0.00 0.00 54 1004.4
20260505203521 32 339 1.6 8.0 0.00 0.00 0.00 54 1004.6
20260505203046 31 334 1.6 14.5 0.00 0.00 0.00 57 1004.7
20260505202522 32 136 3.2 14.5 0.00 0.00 0.00 55 1004.6
20260505202022 31 179 1.6 11.3 0.00 0.00 0.00 57 1004.6
20260505201539 31 186 1.6 12.9 0.00 0.00 0.00 54 1004.7
20260505201021 32 216 1.6 12.9 0.00 0.00 0.00 53 1004.7
20260505200522 32 229 3.2 11.3 0.00 0.00 0.00 54 1004.5
20260505200046 31 199 1.6 6.4 0.00 0.00 0.00 55 1004.8
20260505195522 32 311 1.6 8.0 0.00 0.00 0.00 56 1004.8
20260505195022 31 242 1.6 8.0 0.00 0.00 0.00 57 1004.8
20260505194544 31 183 1.6 6.4 0.00 0.00 0.00 57 1004.8
20260505194023 31 265 1.6 8.0 0.00 0.00 0.00 57 1004.8
20260505193523 31 158 3.2 8.0 0.00 0.00 0.00 56 1004.9
20260505193042 31 225 1.6 6.4 0.00 0.00 0.00 60 1004.7
20260505192523 31 360 1.6 8.0 0.00 0.00 0.00 59 1004.8
20260505192023 30 148 1.6 8.0 0.00 0.00 0.00 59 1004.9
20260505191538 30 261 3.2 9.7 0.00 0.00 0.00 58 1004.9
20260505191023 30 182 1.6 9.7 0.00 0.00 0.00 61 1004.8
20260505190523 30 196 3.2 6.4 0.00 0.00 0.00 61 1004.9
20260505190039 30 203 1.6 11.3 0.00 0.00 0.00 61 1004.9
20260505185522 29 28 3.2 11.3 0.00 0.00 0.00 62 1004.9
20260505185021 29 229 1.6 11.3 0.00 0.00 0.00 63 1005.0
20260505184538 28 216 3.2 11.3 0.00 0.00 0.00 63 1004.9
20260505184021 28 227 1.6 9.7 0.00 0.00 0.00 64 1005.1
20260505183521 28 236 1.6 9.7 0.00 0.00 0.00 64 1005.0
20260505183038 28 169 1.6 14.5 0.00 0.00 0.00 65 1005.0
20260505182522 28 170 3.2 14.5 0.00 0.00 0.00 64 1005.0
20260505182021 28 211 1.6 8.0 0.00 0.00 0.00 64 1005.0
20260505181537 28 195 1.6 11.3 0.00 0.00 0.00 64 1005.2
20260505181021 28 188 3.2 14.5 0.00 0.00 0.00 63 1005.2
20260505180522 28 360 3.2 14.5 0.00 0.00 0.00 64 1005.1
20260505175523 28 191 4.8 11.3 0.00 0.00 0.00 64 1005.0
20260505175025 28 165 1.6 9.7 0.00 0.00 0.00 63 1005.0
20260505174556 28 175 3.2 11.3 0.00 0.00 0.00 64 1005.0
20260505174022 28 209 3.2 11.3 0.00 0.00 0.00 64 1005.2
20260505173524 28 134 1.6 11.3 0.00 0.00 0.00 65 1005.0
20260505173044 28 159 4.8 11.3 0.00 0.00 0.00 65 1005.0
20260505172521 27 215 3.2 11.3 0.00 0.00 0.00 65 1005.2
20260505172021 27 263 1.6 11.3 0.00 0.00 0.00 66 1005.2
20260505171537 27 209 3.2 11.3 0.00 0.00 0.00 66 1005.4
20260505171021 27 148 1.6 12.9 0.00 0.00 0.00 66 1005.2
20260505170521 27 208 4.8 12.9 0.00 0.00 0.00 66 1005.5
20260505170037 27 200 3.2 14.5 0.00 0.00 0.00 66 1005.2
20260505165522 27 263 3.2 14.5 0.00 0.00 0.00 66 1005.4
20260505165024 27 145 3.2 8.0 0.00 0.00 0.00 67 1005.4
20260505164535 27 241 1.6 8.0 0.00 0.00 0.00 67 1005.3
20260505164021 27 123 1.6 11.3 0.00 0.00 0.00 67 1005.4
20260505163521 27 215 3.2 11.3 0.00 0.00 0.00 67 1005.3
20260505163039 26 242 3.2 11.3 0.00 0.00 0.00 68 1005.2
20260505162521 26 240 3.2 11.3 0.00 0.00 0.00 69 1005.2
20260505162021 26 304 3.2 11.3 0.00 0.00 0.00 69 1005.1
20260505161539 26 187 3.2 14.5 0.00 0.00 0.00 69 1005.0
20260505161024 26 196 4.8 14.5 0.00 0.00 0.00 68 1005.0
20260505160523 26 318 3.2 14.5 0.00 0.00 0.00 69 1004.9
20260505153036 25 135 4.8 14.5 0.00 0.00 0.00 71 1004.7
20260505152521 25 197 4.8 14.5 0.00 0.00 0.00 72 1004.7
20260505152020 25 114 4.8 16.1 0.00 0.00 0.00 73 1004.9
20260505151535 25 185 4.8 16.1 0.00 0.00 0.00 73 1005.0
20260505151021 25 219 6.4 16.1 0.00 0.00 0.00 73 1005.1
20260505150521 25 154 4.8 12.9 0.00 0.00 0.00 73 1004.9
20260505140521 23 212 3.2 11.3 0.00 0.00 0.00 78 1005.0
20260505125018 22 186 4.8 12.9 0.00 0.00 0.00 81 1004.6
20260505124538 22 196 1.6 11.3 0.00 0.00 0.00 81 1004.5
20260505124018 22 77 3.2 14.5 0.00 0.00 0.00 81 1004.6
20260505123518 22 173 3.2 14.5 0.00 0.00 0.00 81 1004.5
20260505123037 22 155 3.2 14.5 0.00 0.00 0.00 81 1004.3
20260505122518 22 186 4.8 14.5 0.00 0.00 0.00 81 1004.1
20260505122022 22 232 4.8 14.5 0.00 0.00 0.00 81 1004.1
20260505121540 22 166 4.8 11.3 0.00 0.00 0.00 80 1004.2
20260505121021 22 176 3.2 14.5 0.00 0.00 0.00 80 1004.1
20260505120522 22 151 4.8 17.7 0.00 0.00 0.00 80 1004.1
20260505120041 22 234 4.8 17.7 0.00 0.00 0.00 81 1004.1
20260505115521 22 206 3.2 19.3 0.00 0.00 0.00 80 1004.2
20260505115018 22 189 4.8 19.3 0.00 0.00 0.00 81 1004.1
20260505114537 21 155 4.8 12.9 0.00 0.00 0.00 81 1004.0
20260505114021 22 208 3.2 17.7 0.00 0.00 0.00 80 1003.9
20260505113524 22 161 4.8 17.7 0.00 0.00 0.00 80 1003.9
20260505113036 22 156 4.8 16.1 0.00 0.00 0.00 80 1003.9
20260505112518 22 207 3.2 16.1 0.00 0.00 0.00 80 1003.7
20260505112018 22 205 4.8 22.5 0.00 0.00 0.00 80 1003.8
20260505111539 21 230 6.4 22.5 0.00 0.00 0.00 81 1003.9
20260505111018 21 200 4.8 11.3 0.00 0.00 0.00 81 1003.8
20260505110519 21 205 4.8 11.3 0.00 0.00 0.00 82 1004.0
20260505102025 21 195 4.8 14.5 0.00 0.00 0.00 80 1003.9
20260505101535 21 143 3.2 12.9 0.00 0.00 0.00 81 1004.0
20260505101021 21 194 4.8 11.3 0.00 0.00 0.00 80 1003.9
20260505100521 21 163 3.2 11.3 0.00 0.00 0.00 80 1003.9
20260505100035 21 161 4.8 14.5 0.00 0.00 0.00 80 1003.9
20260505095520 21 201 4.8 17.7 0.00 0.00 0.00 81 1003.9
20260505095024 21 240 6.4 17.7 0.00 0.00 0.00 80 1004.1
20260505094537 21 194 4.8 16.1 0.00 0.00 0.00 81 1004.1
20260505094020 21 84 3.2 16.1 0.00 0.00 0.00 81 1004.3
20260505093522 21 188 6.4 17.7 0.00 0.00 0.00 81 1004.2
20260505093040 21 168 4.8 17.7 0.00 0.00 0.00 81 1004.2
20260505092521 21 151 6.4 16.1 0.00 0.00 0.00 81 1004.2
20260505092021 21 163 3.2 16.1 0.00 0.00 0.00 81 1004.4
20260505091548 21 202 1.6 16.1 0.00 0.00 0.00 81 1004.4
20260505091019 21 205 3.2 12.9 0.00 0.00 0.00 81 1004.5
20260505090521 21 178 3.2 12.9 0.00 0.00 0.00 82 1004.4
20260505090034 21 191 4.8 12.9 0.00 0.00 0.00 82 1004.4
20260505085521 21 169 4.8 19.3 0.00 0.00 0.00 81 1004.3
20260505085025 21 132 3.2 19.3 0.00 0.00 0.00 81 1004.3
20260505084535 21 312 3.2 17.7 0.00 0.00 0.00 81 1004.3
20260505084023 21 202 6.4 17.7 0.00 0.00 0.00 81 1004.3
20260505083520 21 172 4.8 12.9 0.00 0.00 0.00 81 1004.4
20260505083039 21 36 3.2 12.9 0.00 0.00 0.00 81 1004.4
20260505082520 21 205 4.8 14.5 0.00 0.00 0.00 80 1004.3
20260505082022 21 198 4.8 19.3 0.00 0.00 0.00 80 1004.3